Weather History for GEML - April, 2013

Change the Weather History Date:

Monday, April 15, 2013

  Actual Average Record
Temperature  
Mean Temperature 62 °F -  
Max Temperature 65 °F 72 °F 75 °F (2006)
Min Temperature 58 °F 58 °F 51 °F (2003)
Degree Days  
Heating Degree Days 4    
Growing Degree Days 12 (Base 50)    
Moisture  
Dew Point 57 °F    
Average Humidity 83    
Maximum Humidity 94    
Minimum Humidity 73    
Precipitation  
Precipitation 0.00 in 0.05 in - ()
Sea Level Pressure  
Sea Level Pressure 30.18 in    
Wind  
Wind Speed 3 mph ()    
Max Wind Speed 8 mph    
Max Gust Speed -    
Visibility 5.1 miles    
Events      
Averages and records for this station are not official NWS values.
T = Trace of Precipitation, MM = Missing Value Source: Averaged Metar Reports

Daily Weather History Graph

Daily Weather History Graph

Search for Another Location

Airport or City:

Trip Planner

Search our weather history database for the weather conditions in past years. The results will help you decide how hot, cold, wet, or windy it might be!

Date:

Astronomy

Apr. 15, 2013 Rise Set
Actual Time 7:39 AM CEST 8:44 PM CEST
Civil Twilight 7:13 AM CEST 9:10 PM CEST
Nautical Twilight 6:42 AM CEST 9:42 PM CEST
Astronomical Twilight 6:10 AM CEST 10:14 PM CEST
Moon 10:59 AM CEST (4/15) 12:39 AM CEST (4/15)
Length of Visible Light 13h 57m
Length of Day
13h 05m
Waxing Crescent, 22% of the Moon is Illuminated
Apr 15
Waxing Crescent
Apr 18
First Quarter
Apr 25
Full
May 2
Last Quarter
May 10
New

Hourly Weather History & Observations

Time (CEST) Temp. Dew Point Humidity Pressure Visibility Wind Dir Wind Speed Gust Speed Precip Events Conditions
6:00 AM 59.0 °F 57.2 °F 94% 30.18 in 3.1 mi Calm Calm - N/A   Mostly Cloudy
6:30 AM 59.0 °F 57.2 °F 94% 30.18 in 3.1 mi Calm Calm - N/A   Scattered Clouds
7:00 AM 59.0 °F 57.2 °F 94% 30.18 in 2.5 mi Variable 2.3 mph - N/A   Mostly Cloudy
7:30 AM 59.0 °F 57.2 °F 94% 30.18 in 3.7 mi Variable 2.3 mph - N/A   Scattered Clouds
8:00 AM 59 °F 58 °F 94% 30.19 in 4 mi ENE 3.5 mph - -   Mist
8:00 AM 59.0 °F 57.2 °F 94% 30.18 in 3.7 mi East 3.5 mph - N/A   Mostly Cloudy
8:30 AM 60.8 °F 59.0 °F 94% 30.18 in 3.7 mi Calm Calm - N/A   Mostly Cloudy
9:00 AM 60.8 °F 59.0 °F 94% 30.18 in 3.7 mi NE 3.5 mph - N/A   Mostly Cloudy
9:30 AM 62.6 °F 59.0 °F 88% 30.18 in 3.7 mi Variable 2.3 mph - N/A   Mostly Cloudy
10:00 AM 62.6 °F 59.0 °F 88% 30.18 in 3.7 mi ENE 3.5 mph - N/A   Mostly Cloudy
10:30 AM 62.6 °F 57.2 °F 82% 30.21 in 3.7 mi NE 4.6 mph - N/A   Mostly Cloudy
11:00 AM 64.4 °F 59.0 °F 83% 30.21 in 5.0 mi NNE 3.5 mph - N/A   Mostly Cloudy
11:30 AM 64.4 °F 57.2 °F 77% 30.21 in 5.0 mi NNE 6.9 mph - N/A   Mostly Cloudy
12:00 PM 64.4 °F 57.2 °F 77% 30.21 in 5.0 mi NE 6.9 mph - N/A   Mostly Cloudy
12:30 PM 64.4 °F 57.2 °F 77% 30.21 in 5.0 mi NE 8.1 mph - N/A   Mostly Cloudy
1:00 PM 64.4 °F 57.2 °F 77% 30.18 in 5.0 mi NE 8.1 mph - N/A   Mostly Cloudy
1:30 PM 64.4 °F 57.2 °F 77% 30.18 in 5.0 mi ENE 8.1 mph - N/A   Mostly Cloudy
2:00 PM 64 °F 59 °F 78% 30.19 in 5 mi NE 5.8 mph - -   Mist
2:00 PM 64.4 °F 57.2 °F 77% 30.18 in 5.0 mi NE 5.8 mph - N/A   Mostly Cloudy
2:30 PM 64.4 °F 57.2 °F 77% 30.18 in 5.0 mi NNE 4.6 mph - N/A   Mostly Cloudy
3:00 PM 64.4 °F 57.2 °F 77% 30.18 in 6.2 mi NNE 8.1 mph - N/A   Mostly Cloudy
3:30 PM 64.4 °F 57.2 °F 77% 30.18 in 6.2 mi NNE 8.1 mph - N/A   Mostly Cloudy
4:00 PM 64.4 °F 57.2 °F 77% 30.18 in 6.2 mi NNE 6.9 mph - N/A   Mostly Cloudy
4:30 PM 64.4 °F 57.2 °F 77% 30.15 in 6.2 mi NE 8.1 mph - N/A   Mostly Cloudy
5:00 PM 64.4 °F 57.2 °F 77% 30.15 in 6.2 mi NE 8.1 mph - N/A   Mostly Cloudy
5:30 PM 64.4 °F 55.4 °F 73% 30.15 in 6.2 mi NE 6.9 mph - N/A   Mostly Cloudy
6:00 PM 64.4 °F 57.2 °F 77% 30.15 in 6.2 mi NE 6.9 mph - N/A   Mostly Cloudy
6:30 PM 62.6 °F 57.2 °F 82% 30.15 in 6.2 mi NE 4.6 mph - N/A   Mostly Cloudy
7:00 PM 62.6 °F 55.4 °F 77% 30.15 in 6.2 mi ENE 3.5 mph - N/A   Mostly Cloudy
7:30 PM 62.6 °F 57.2 °F 82% 30.15 in 6.2 mi ENE 3.5 mph - N/A   Mostly Cloudy
8:00 PM 63 °F 58 °F 77% 30.15 in 9 mi NE 2.3 mph - -   Mostly Cloudy
8:00 PM 62.6 °F 57.2 °F 82% 30.15 in 6.2 mi Variable 2.3 mph - N/A   Mostly Cloudy
8:30 PM 62.6 °F 57.2 °F 82% 30.15 in 6.2 mi Variable 2.3 mph - N/A   Mostly Cloudy